GW4745 Weather Reports


time (UTC)temp
C
wind
direction
speed
KPH
gust
KPH
rain 1hr
cm
rain 24hr
cm
rain mn
cm
humidity
%
barometer
mb
20260505140106 17 150 8.0 14.5 0.00 0.00 0.00 64 1016.5
20260505130112 15 150 4.8 9.7 0.00 0.00 0.00 69 1016.3
20260505124602 15 150 3.2 8.0 0.00 0.00 0.00 70 1016.3
20260505123102 14 150 1.6 6.4 0.00 0.00 0.00 72 1016.2
20260505121559 13 150 1.6 3.2 0.00 0.00 0.00 73 1016.1
20260505120113 12 150 0.0 3.2 0.00 0.00 0.00 76 1015.9
20260505114559 11 0 0.0 1.6 0.00 0.00 0.00 79 1016.0
20260505113116 10 0 0.0 4.8 0.00 0.00 0.00 80 1015.9
20260505111559 9 0 0.0 0.0 0.00 0.00 0.00 82 1015.8
20260505110133 9 0 0.0 0.0 0.00 0.00 0.00 83 1015.7
20260505101601 10 0 0.0 0.0 0.00 0.00 0.00 80 1015.7
20260505100100 10 0 0.0 0.0 0.00 0.00 0.00 79 1015.8
20260505094634 10 0 0.0 1.6 0.00 0.00 0.00 77 1015.9
20260505093100 11 0 0.0 0.0 0.00 0.00 0.00 73 1015.7
20260505091606 12 0 0.0 4.8 0.00 0.00 0.00 71 1015.5
20260505090106 12 0 0.0 3.2 0.00 0.00 0.00 69 1015.4
20260505084559 12 150 1.6 8.0 0.00 0.00 0.00 68 1015.1
20260505083105 13 150 3.2 8.0 0.00 0.00 0.00 66 1014.9
20260505081601 13 150 1.6 9.7 0.00 0.00 0.00 64 1014.8
20260505080059 13 150 6.4 11.3 0.00 0.00 0.00 63 1014.6
20260505074557 13 150 4.8 17.7 0.00 0.00 0.00 62 1014.4
20260505073104 13 150 8.0 14.5 0.00 0.00 0.00 62 1014.4
20260505071600 13 150 4.8 12.9 0.00 0.00 0.00 62 1014.5
20260505070101 13 150 8.0 12.9 0.00 0.00 0.00 62 1014.5
20260505064557 14 150 1.6 4.8 0.00 0.00 0.00 60 1014.3
20260505063058 15 150 3.2 6.4 0.00 0.00 0.00 59 1014.5
20260505061601 15 150 3.2 9.7 0.00 0.00 0.00 57 1014.4
20260505060105 15 150 3.2 12.9 0.00 0.00 0.00 56 1014.6
20260505054559 15 150 4.8 11.3 0.00 0.00 0.00 55 1014.5
20260505053059 16 150 3.2 16.1 0.00 0.00 0.00 55 1014.6
20260505051559 16 150 3.2 9.7 0.00 0.00 0.00 53 1014.6
20260505041559 17 150 4.8 11.3 0.00 0.00 0.00 50 1014.5
20260505040106 16 150 1.6 6.4 0.00 0.00 0.00 50 1014.5
20260505034559 16 0 1.6 4.8 0.00 0.00 0.00 51 1014.8
20260505033100 16 150 0.0 3.2 0.00 0.00 0.00 51 1014.9
20260505031601 17 150 1.6 6.4 0.00 0.00 0.00 49 1015.0
20260505024557 17 150 0.0 3.2 0.00 0.00 0.00 48 1015.0
20260505023100 17 0 0.0 4.8 0.00 0.00 0.00 47 1014.8
20260505021559 18 150 1.6 6.4 0.00 0.00 0.00 45 1014.9
20260505020105 18 150 1.6 6.4 0.00 0.00 0.00 45 1014.8
20260505014607 18 150 1.6 6.4 0.00 0.00 0.00 45 1014.6
20260505013059 18 150 3.2 8.0 0.00 0.00 0.00 44 1014.4
20260505011601 18 150 1.6 6.4 0.00 0.00 0.00 44 1014.3
20260505010100 19 150 3.2 8.0 0.00 0.00 0.00 43 1014.2
20260505004559 20 150 1.6 9.7 0.00 0.00 0.00 42 1014.0
20260505003057 20 150 3.2 9.7 0.00 0.00 0.00 42 1013.9
20260505001600 21 150 4.8 9.7 0.00 0.00 0.00 41 1013.8
20260505000059 21 150 4.8 12.9 0.00 0.00 0.00 39 1013.8
20260504234557 22 150 6.4 14.5 0.00 0.00 0.00 38 1013.6
20260504233058 22 150 11.3 22.5 0.00 0.00 0.00 36 1013.6
20260504231559 23 150 12.9 20.9 0.00 0.00 0.00 36 1013.4
20260504230058 23 150 8.0 20.9 0.00 0.00 0.00 37 1013.3
20260504224559 23 150 9.7 27.4 0.00 0.00 0.00 37 1013.3
20260504223102 24 150 11.3 17.7 0.00 0.00 0.00 36 1013.2
20260504221558 24 150 11.3 19.3 0.00 0.00 0.00 35 1013.2
20260504214605 24 150 8.0 25.7 0.00 0.00 0.00 35 1013.4
20260504213058 24 150 8.0 20.9 0.00 0.00 0.00 34 1013.4
20260504211602 24 150 12.9 33.8 0.00 0.00 0.00 35 1013.4
20260504210106 24 150 8.0 16.1 0.00 0.00 0.00 36 1013.5
20260504204623 25 150 9.7 19.3 0.00 0.00 0.00 37 1013.6
20260504203136 24 150 11.3 24.1 0.00 0.00 0.00 37 1013.6
20260504201559 24 150 6.4 16.1 0.00 0.00 0.00 37 1013.8
20260504200058 24 150 9.7 19.3 0.00 0.00 0.00 36 1013.9
20260504194559 24 150 6.4 19.3 0.00 0.00 0.00 37 1014.1
20260504193101 24 150 12.9 22.5 0.00 0.00 0.00 37 1014.3
20260504191604 23 150 4.8 16.1 0.00 0.00 0.00 39 1014.4
20260504190059 23 150 8.0 17.7 0.00 0.00 0.00 36 1014.6
20260504184602 23 150 4.8 22.5 0.00 0.00 0.00 38 1015.0
20260504183105 23 150 4.8 19.3 0.00 0.00 0.00 38 1015.0
20260504181606 22 150 6.4 14.5 0.00 0.00 0.00 39 1015.2
20260504180126 22 150 6.4 20.9 0.00 0.00 0.00 39 1015.4
20260504174558 22 150 1.6 9.7 0.00 0.00 0.00 40 1015.4
20260504173108 22 150 3.2 11.3 0.00 0.00 0.00 39 1015.5
20260504171612 21 150 6.4 12.9 0.00 0.00 0.00 41 1015.5
20260504160112 21 150 3.2 11.3 0.00 0.00 0.00 42 1016.6
20260504150104 18 150 6.4 12.9 0.00 0.00 0.00 44 1017.4